Wind_Speed
10 9 10 10 10 11 11 12 12 12 12 12 12 11 10 9 8 6 5 3 2 1 1 2 3 4 6 9 10 11 13 14 15 17 19 21 23 24 25 27 28 30 31
11 10 10 10 10 10 10 11 11 11 11 12 11 11 10 9 8 6 5 3 2 1 0 1 2 4 5 7 9 10 11 13 14 15 17 19 20 22 23 24 25 27 29
13 12 11 11 10 10 9 10 10 10 10 10 10 10 9 9 7 6 5 4 3 2 1 1 1 3 5 6 8 9 10 11 13 14 15 16 18 20 22 23 24 26 28
15 14 13 12 11 10 9 9 9 9 9 9 9 9 9 9 8 6 5 5 4 3 2 2 2 3 4 5 7 8 10 11 12 13 14 15 17 19 21 22 23 25 27
18 17 16 14 13 12 11 10 9 9 8 8 8 7 8 8 8 7 6 5 4 4 3 3 3 4 4 5 6 8 9 10 11 12 13 15 16 18 19 20 22 23 25
20 19 18 17 16 15 13 12 10 10 9 8 7 7 7 7 7 7 6 5 5 4 4 4 4 5 5 6 7 8 9 10 11 12 13 14 16 17 18 20 21 22 24
22 22 21 20 19 18 16 14 12 11 10 9 8 8 7 7 7 7 6 6 6 5 5 5 5 5 6 7 7 8 9 10 11 12 13 13 15 16 18 19 20 22 23
23 24 23 22 22 20 19 17 16 14 13 11 10 10 9 8 8 7 7 7 7 7 6 6 6 7 7 7 8 8 9 10 11 12 13 14 14 15 17 18 19 21 22
25 25 25 25 24 23 22 21 19 18 16 15 13 12 11 10 9 9 9 8 8 8 8 7 8 8 9 9 9 9 10 11 11 12 13 14 15 16 16 17 18 20 21
27 27 27 27 26 26 25 24 22 21 19 18 16 15 14 12 12 11 10 10 10 10 9 9 9 9 10 10 10 11 11 12 12 13 14 14 15 16 17 17 18 19 20
28 29 29 29 28 28 28 27 26 24 23 21 20 18 17 15 14 13 12 12 12 12 11 11 11 11 11 11 12 12 13 13 14 14 15 16 16 17 17 18 19 20 20
30 30 31 31 31 30 30 29 28 27 26 24 23 22 20 19 17 16 15 15 14 14 13 13 12 12 12 13 13 14 14 15 15 16 16 17 18 18 19 20 20 21 21
33 33 33 33 33 33 32 32 31 30 29 27 26 25 24 23 21 20 18 17 17 16 16 15 15 14 14 14 14 15 16 16 17 17 18 19 19 20 20 21 21 22 23
37 36 36 36 35 35 35 34 33 32 31 30 29 28 27 26 25 23 22 21 20 19 19 18 18 18 17 17 17 17 17 18 18 19 20 20 21 21 21 22 23 23 24
40 39 39 38 38 37 37 37 36 35 34 33 32 31 30 28 28 27 26 24 23 23 22 21 21 20 20 19 19 19 19 19 20 20 21 21 22 22 23 23 24 25 26
44 42 42 41 41 40 40 39 38 37 36 35 35 33 32 31 30 29 28 27 26 25 25 24 23 23 22 22 21 21 21 21 21 22 22 23 24 24 25 25 26 27 28
47 46 44 44 44 43 42 41 41 40 39 38 37 36 35 33 32 31 30 29 28 28 27 26 25 25 24 24 24 23 23 23 24 24 24 25 26 26 27 28 28 29 30
50 49 47 46 46 45 44 44 43 43 42 41 40 38 37 36 35 33 32 31 30 29 29 28 27 27 26 26 25 25 25 25 26 26 26 27 27 28 29 30 30 31 31
51 50 50 49 48 48 47 46 46 46 45 43 42 41 40 38 37 36 34 33 32 31 30 30 29 28 28 27 27 27 27 27 27 28 28 29 29 30 30 31 31 32 33
53 52 52 51 50 50 49 49 48 48 47 45 44 43 42 41 39 38 36 35 34 33 32 31 30 30 29 29 29 28 28 28 29 29 29 30 31 31 31 32 32 33 34
54 54 54 54 53 52 51 51 50 49 48 47 46 45 44 43 41 40 38 37 35 34 33 33 32 31 31 30 30 30 30 30 30 30 30 31 32 32 33 33 34 35 36
56 55 55 56 56 54 53 53 52 51 50 50 49 48 47 46 44 42 40 39 38 36 35 34 33 32 32 31 31 31 31 31 31 31 31 32 33 33 34 35 36 37 38
56 57 57 57 57 56 55 55 55 54 53 52 51 50 49 47 46 44 42 41 39 38 37 36 35 34 33 32 32 32 31 31 31 32 32 33 34 35 36 37 38 39 40
54 55 55 55 55 55 55 55 56 56 55 54 53 52 51 49 47 46 44 42 41 40 39 37 36 36 34 33 33 33 33 32 33 33 33 34 35 36 37 38 39 40 40
50 50 51 52 51 52 53 53 54 55 55 55 54 53 52 51 49 48 46 45 43 42 41 39 38 37 36 35 35 34 34 34 34 35 35 36 37 38 38 39 40 41 42
46 47 48 50 50 50 51 52 52 54 54 54 53 53 53 52 50 49 48 46 45 44 42 41 40 38 37 36 36 36 35 35 35 36 36 37 38 39 40 41 42 42 43
Wind_Direction
293 303 313 323 332 341 349 354 358 360 2 4 6 7 9 10 11 14 19 23 38 66 189 213 218 216 213 213 214 220 223 225 229 233 234 233 234 236 237 238 240 242 243
283 290 299 309 319 329 338 346 352 356 358 360 3 6 7 9 11 13 16 20 24 17 301 241 227 223 220 215 218 224 227 229 233 236 235 235 236 237 239 241 243 244 245
274 279 287 294 303 314 324 334 342 347 351 356 1 4 7 9 9 7 4 3 3 356 329 294 252 236 229 225 225 229 231 232 235 238 239 238 238 240 243 245 248 248 248
268 271 277 282 287 295 306 317 327 334 341 348 354 359 2 5 5 4 0 356 349 336 319 296 278 266 248 242 240 242 242 241 242 244 244 245 247 248 249 251 253 252 251
265 266 269 274 277 281 288 298 308 318 326 332 338 344 350 354 357 357 353 348 343 334 316 298 285 277 267 258 253 252 252 251 251 251 251 251 251 252 254 255 257 255 253
264 264 264 267 270 272 276 282 289 299 306 313 319 324 330 337 341 344 343 337 329 320 313 305 292 282 275 270 264 261 261 259 256 256 256 255 257 258 260 261 262 259 256
264 263 263 263 265 266 268 271 276 281 288 294 300 305 310 315 320 325 328 327 320 311 305 302 298 291 283 279 274 268 266 265 263 263 263 262 262 263 264 264 263 262 258
264 263 262 261 261 262 263 264 267 270 275 279 285 289 292 295 299 305 309 310 310 305 299 297 294 291 287 284 280 277 273 272 269 268 267 266 267 267 267 267 266 265 263
265 263 262 260 259 259 259 259 261 263 266 269 272 276 280 283 286 290 294 297 299 298 296 292 290 289 287 284 284 285 283 280 276 274 273 273 272 272 272 271 270 268 266
265 263 262 261 259 258 258 258 258 259 261 263 265 268 270 273 277 280 284 287 289 290 289 289 289 288 287 287 286 286 286 285 282 279 277 277 276 275 274 274 273 273 272
265 263 262 261 259 258 257 256 256 257 258 259 260 262 264 266 269 273 276 279 281 283 284 284 285 286 286 287 288 289 288 287 286 283 281 279 279 278 277 276 275 275 275
265 263 261 260 259 258 256 256 255 255 256 257 257 258 260 261 263 266 269 272 275 277 279 281 282 283 284 285 287 289 289 289 288 286 284 283 282 281 280 279 278 277 276
265 263 261 259 258 258 257 255 255 254 254 255 255 256 257 258 260 262 265 268 270 273 274 276 278 280 282 284 286 287 289 289 289 288 286 284 284 284 283 282 281 281 280
264 262 261 259 257 257 256 255 254 254 253 253 254 254 255 256 258 259 261 264 267 269 271 272 274 276 279 281 284 285 287 288 288 288 287 286 285 285 285 284 284 283 282
264 262 260 258 257 256 255 255 254 253 252 252 252 253 253 254 256 257 259 261 264 266 268 270 272 274 276 279 281 283 285 287 288 289 288 287 286 286 286 285 285 285 284
263 261 260 257 256 255 254 254 253 252 251 251 251 252 252 253 254 256 258 260 262 264 266 267 269 272 275 277 280 282 284 286 287 289 289 289 288 288 287 287 286 287 286
261 260 258 257 255 254 253 252 252 251 250 250 250 251 252 252 253 254 256 258 260 262 264 266 268 270 273 276 278 281 283 285 286 288 289 289 289 289 289 288 288 288 287
259 258 257 256 255 253 251 251 250 250 249 249 249 249 250 251 252 253 254 256 258 260 262 264 267 269 271 274 276 279 282 284 286 287 289 290 290 290 290 289 289 288 288
256 256 255 254 254 252 250 249 248 248 248 248 247 248 248 249 250 251 253 254 256 258 261 263 265 268 270 273 275 278 281 283 285 286 288 290 291 291 291 291 290 289 289
256 254 254 253 252 251 249 248 247 246 246 246 246 247 247 247 248 249 251 252 254 256 259 261 264 267 269 272 274 277 280 282 284 286 288 290 291 292 292 292 291 291 291
256 254 253 252 250 249 248 247 246 245 244 244 244 244 245 246 246 247 248 250 252 254 257 260 263 265 268 271 274 276 279 282 284 286 288 290 291 292 292 292 292 293 293
258 256 254 252 250 248 247 245 243 242 242 242 242 242 243 244 245 246 247 248 250 252 255 258 261 264 267 270 273 276 279 281 283 286 288 290 291 292 293 293 294 294 294
260 257 254 251 249 247 245 244 242 241 240 240 240 240 241 241 242 244 245 247 249 251 253 256 259 263 266 269 272 275 278 281 283 286 288 290 292 292 293 294 295 295 295
260 258 254 250 247 245 243 243 241 240 238 238 239 239 239 239 240 242 242 244 247 249 252 255 258 261 264 268 272 274 276 280 283 286 289 291 292 293 294 296 296 296 296
260 256 253 249 246 243 241 240 239 237 237 236 237 237 237 238 239 240 241 242 244 247 250 254 256 260 264 267 271 273 276 279 282 285 289 291 292 294 295 296 297 297 297
259 256 253 249 246 244 241 238 237 236 235 235 235 236 237 237 238 239 240 242 243 246 248 252 256 259 262 266 269 272 275 279 282 285 288 291 292 293 295 296 297 298 299
Height
5820 5819 5817 5815 5813 5810 5808 5805 5802 5800 5797 5794 5792 5789 5787 5785 5784 5783 5782 5781 5781 5781 5781 5781 5782 5782 5783 5785 5786 5788 5789 5791 5793 5794 5796 5798 5800 5803 5805 5807 5809 5812 5814
5817 5816 5815 5813 5811 5809 5807 5804 5802 5799 5797 5795 5792 5790 5788 5786 5784 5783 5782 5782 5781 5781 5781 5781 5781 5781 5782 5783 5784 5785 5786 5788 5789 5790 5792 5793 5795 5797 5799 5801 5803 5805 5807
5814 5813 5812 5810 5809 5807 5805 5803 5801 5799 5797 5794 5792 5790 5788 5786 5785 5783 5782 5782 5781 5781 5780 5780 5780 5780 5781 5781 5782 5783 5783 5785 5786 5786 5787 5789 5790 5792 5793 5795 5796 5798 5799
5810 5810 5809 5808 5806 5805 5803 5801 5800 5798 5796 5794 5792 5790 5788 5786 5785 5784 5782 5781 5781 5780 5780 5779 5779 5779 5779 5779 5780 5780 5781 5782 5782 5783 5784 5784 5785 5787 5788 5789 5790 5791 5792
5805 5805 5805 5804 5803 5802 5800 5799 5797 5796 5794 5793 5791 5790 5788 5786 5785 5783 5782 5781 5780 5779 5779 5778 5778 5778 5778 5778 5778 5778 5778 5778 5779 5779 5780 5781 5781 5782 5783 5783 5784 5784 5785
5800 5800 5800 5800 5799 5798 5797 5796 5795 5794 5792 5791 5790 5788 5787 5786 5784 5783 5781 5780 5779 5778 5778 5777 5777 5776 5776 5775 5775 5775 5775 5775 5776 5776 5776 5777 5777 5777 5777 5777 5777 5778 5778
5794 5794 5794 5794 5794 5793 5793 5792 5791 5790 5789 5788 5787 5786 5785 5784 5783 5782 5780 5779 5778 5777 5776 5775 5775 5774 5773 5773 5773 5772 5772 5772 5772 5772 5772 5772 5772 5772 5772 5772 5771 5771 5772
5788 5788 5788 5788 5788 5788 5788 5787 5787 5786 5786 5785 5784 5783 5782 5782 5781 5780 5778 5777 5776 5775 5774 5773 5773 5772 5771 5771 5770 5770 5769 5769 5768 5768 5768 5768 5767 5767 5767 5766 5766 5765 5765
5781 5781 5781 5781 5781 5782 5782 5781 5781 5781 5781 5780 5780 5779 5779 5778 5777 5776 5776 5775 5774 5773 5772 5771 5770 5769 5768 5768 5767 5767 5766 5765 5765 5764 5763 5763 5762 5762 5761 5761 5760 5760 5759
5774 5774 5773 5773 5774 5774 5774 5775 5775 5775 5775 5775 5775 5774 5774 5774 5773 5773 5772 5771 5770 5770 5769 5768 5767 5766 5765 5764 5764 5763 5762 5761 5761 5760 5759 5758 5758 5757 5756 5755 5754 5754 5753
5766 5765 5765 5765 5766 5766 5767 5767 5767 5768 5768 5768 5769 5769 5768 5768 5768 5768 5768 5767 5766 5766 5765 5764 5763 5762 5761 5760 5760 5759 5758 5757 5756 5755 5754 5753 5752 5751 5751 5750 5749 5748 5747
5757 5757 5757 5756 5757 5757 5758 5759 5759 5760 5761 5761 5761 5762 5762 5762 5762 5762 5762 5762 5762 5761 5760 5760 5759 5758 5757 5756 5755 5754 5753 5752 5751 5750 5749 5748 5747 5746 5745 5744 5743 5742 5741
5747 5747 5747 5747 5747 5748 5748 5749 5750 5751 5752 5753 5753 5754 5754 5755 5755 5756 5756 5756 5756 5756 5755 5755 5754 5753 5752 5751 5750 5749 5748 5747 5746 5745 5743 5742 5741 5740 5739 5737 5736 5735 5734
5735 5735 5736 5736 5737 5737 5738 5739 5740 5741 5742 5743 5744 5745 5746 5747 5747 5748 5748 5749 5749 5749 5749 5748 5748 5747 5747 5746 5745 5744 5742 5741 5740 5739 5737 5736 5735 5733 5732 5731 5729 5728 5727
5722 5723 5723 5724 5725 5726 5727 5728 5730 5731 5732 5733 5735 5736 5737 5738 5739 5739 5740 5741 5741 5742 5741 5741 5741 5741 5740 5739 5738 5737 5736 5735 5733 5732 5731 5729 5728 5726 5725 5723 5722 5720 5719
5707 5708 5709 5711 5712 5713 5715 5716 5718 5720 5721 5722 5724 5725 5727 5728 5729 5730 5731 5732 5732 5733 5733 5733 5733 5733 5733 5732 5731 5730 5729 5728 5726 5725 5723 5722 5720 5719 5717 5716 5714 5712 5711
5691 5692 5694 5696 5697 5699 5701 5703 5705 5707 5708 5710 5712 5714 5716 5717 5718 5720 5721 5722 5723 5723 5724 5724 5725 5724 5724 5724 5723 5722 5721 5720 5719 5717 5716 5714 5712 5711 5709 5707 5705 5704 5702
5674 5675 5677 5680 5682 5684 5686 5689 5691 5693 5695 5697 5700 5702 5704 5705 5707 5709 5710 5711 5713 5714 5714 5715 5715 5715 5715 5715 5714 5714 5713 5712 5710 5709 5707 5706 5704 5702 5700 5698 5696 5694 5692
5656 5658 5660 5663 5665 5668 5670 5673 5676 5679 5681 5684 5686 5689 5691 5693 5695 5697 5699 5701 5702 5703 5704 5705 5705 5706 5706 5706 5705 5705 5704 5703 5702 5700 5699 5697 5695 5693 5691 5689 5686 5684 5682
5637 5639 5642 5645 5648 5651 5653 5656 5660 5663 5666 5670 5673 5676 5678 5680 5682 5685 5687 5689 5691 5692 5693 5694 5695 5696 5696 5696 5696 5695 5694 5693 5692 5691 5689 5687 5685 5683 5681 5678 5676 5674 5672
5616 5619 5622 5625 5629 5632 5636 5639 5643 5647 5651 5655 5658 5661 5664 5666 5669 5672 5675 5677 5679 5681 5682 5683 5684 5685 5685 5686 5685 5685 5684 5683 5682 5681 5679 5677 5675 5673 5670 5668 5666 5663 5661
5595 5598 5601 5605 5609 5613 5617 5621 5625 5629 5634 5638 5642 5646 5649 5652 5656 5659 5662 5664 5666 5668 5670 5672 5673 5674 5674 5675 5675 5674 5674 5673 5672 5670 5668 5667 5664 5662 5660 5657 5655 5652 5649
5573 5576 5579 5583 5587 5592 5596 5601 5606 5611 5616 5621 5625 5630 5633 5637 5641 5645 5648 5651 5654 5656 5658 5659 5661 5662 5663 5663 5664 5663 5663 5662 5661 5659 5658 5656 5654 5651 5649 5646 5643 5640 5637
5551 5554 5557 5561 5565 5570 5575 5580 5586 5591 5597 5602 5608 5613 5618 5622 5626 5630 5634 5637 5640 5643 5645 5647 5649 5650 5651 5652 5652 5652 5651 5651 5650 5648 5647 5645 5642 5640 5637 5634 5631 5628 5625
5531 5533 5537 5540 5545 5550 5555 5560 5566 5572 5578 5584 5590 5596 5601 5606 5611 5615 5619 5623 5626 5629 5632 5634 5636 5638 5639 5640 5640 5640 5640 5639 5638 5637 5635 5633 5631 5628 5625 5622 5619 5616 5612
5513 5515 5518 5522 5526 5531 5536 5541 5547 5554 5560 5566 5573 5579 5585 5590 5595 5599 5604 5608 5612 5615 5618 5621 5623 5625 5626 5627 5628 5628 5628 5627 5626 5625 5623 5621 5619 5616 5613 5610 5606 5603 5599